Key statistics
Satellite OBJECT H at a glance.
Uptime
1307
Days in orbit
Revolutions
≈ 16.4
Per day
Orbit
SSO
Sun Synchronous Orbit
Inclination
97.4
Latest
Satellite identification and parameters
Extended collection of information and parameters for OBJECT H.
Object identification
Identified? True
Debris? False
Object name: OBJECT H
International designator: 2021-091H
Object number (NORAD): 49322
Object ID (CCSDS): 49322
Country: PEOPLES REPUBLIC OF CHINA (PRC)
Current information (Y/N): Y
RCS size: MEDIUM
Orbital parameters
Decay date: May 13, 2025
Period: 87.693 minutes
Inclination: 97.3715 deg
SMA: 6538.368 km
Apoapsis: 166.497 km
Periapsis: 153.969 km
RAAN: 346.7302 deg
Eccentricy: 0.000958
Argument of periapsis: 256.2888 deg
Mean anomaly: 103.7346 deg
Mean motion: 16.42096743 rev/day
Mean motion (dot): 0.09066777 rev/day2
B* drag term: 0.00044549 1/REarth
Two-line elements (TLE)
Creation date: May 10, 2025, 5:27 p.m.
Reference frame: TEME
Reference center: EARTH
Epoch: May 10, 2025, 7:40 a.m. UTC
TLE line 0: 0 OBJECT H
TLE line 1: 1 49322U 21091H 25130.31990274 .09066777 25582-5 44549-3 0 9997
TLE line 2: 2 49322 97.3715 346.7302 0009580 256.2888 103.7346 16.42096743199779
Live tracking on map
Satellite OBJECT H has decayed and is no longer in orbit. No tracking available.
In-orbit conjunctions
Satellite OBJECT H has decayed and is no longer in orbit. No conjunctions available.
Associated space launch
Xihe, also known as the Chinese Hα Solar Explorer (CHASE), is designed to test a newly developed satellite platform and conduct solar observations. The scientific payload of the satellite is an Hα imaging spectrograph (HIS), which can, for the first time, acquire full-disk spectroscopic solar observations in the Hα waveband. It will complement the observations by on-orbit solar spacecraft (such as SDO, IRIS, STEREO and PSP), as well as future solar missions of the Solar Orbiter and the Chinese Advanced Space-based Solar Observatory (ASO-S). Mission is named Xihe after a solar deity from Chinese mythology.
OBJECT H was lifted into orbit during the mission ‘Long March 2D | Xihe (CHASE)’, on board a Long March 2D space rocket.
The launch took place on Oct. 14, 2021, 10:51 a.m. from Launch Complex 9.
For more information about the launch, click the button.
Long March 2D | Xihe (CHASE)
Agency: N/A
Status: Launch Successful
Launch date: Oct. 14, 2021, 10:51 a.m. UTC
Rocket: Long March 2D
Launch pad: Launch Complex 9
Location: Taiyuan Satellite Launch Center, People's Republic of China
...
Latest news about this satellite
China launches hydrogen-alpha solar telescope aboard Long March 2D
China has launched a small experimental solar observatory as part of a multi-satellite launch aboard a Long March 2D rocket Thursday. The launch took place from the Taiyuan Satellite Launch Center at 10:51 UTC (18:51 Bejing time).
China launches orbiting solar observatory
China successfully launched a half-ton scientific research satellite Oct. 14 to study the violent and sudden physical processes behind solar flares, joining 10 other small payloads on a Long March 2D rocket that also tested grid fins to help guide the exp...
China launches first solar observatory, tests grid fins
China carried out its 37th orbital launch of the year Thursday, successfully sending the Chinese H-alpha Solar Explorer and 10 other satellites into orbit.
Newsletter sign-up
Weekly statistics, charts and insights to help you stay on top of the space industry.
